www.pogodaiklimat.ru

Погода и климат >> Архив погоды >> Россия >> Магаданская область >> Эвенск


ПОГОДА в Эвенске

  • Прогноз погоды в Эвенске
  • Монитор погоды в Эвенске
  • Климат города

АРХИВ ПОГОДЫ в Эвенске

Время (UTC), дата Ветер
(напр.,м/с)
 
Видим.   Явления Облачность Т
(С)
Тd
(С)
f
(%)
Тe
(С)
Тes
(С)
Комфортность P
(гПа)
Po
(гПа)
Тmin
(С)
Tmax
(С)
R
(мм)
R24
(мм)
S
(см)
09 19.06 Ю 3
{10}
4000 м дымка {морось} 10/10 300 м
[St]
+8.7 +6.8 88 +6 +6 1008.8 1007.4 +9.9
12 19.06 Ю 2 н/о н/о +8.0 +6.6 91 +6 +6 1009.5 1008.0
15 19.06 Ю 2 н/о н/о +7.6 +6.3 91 +5 +5 1008.3 1006.9
18 19.06 ЮВ 2 н/о н/о +7.1 +6.1 93 +5 +5 1007.7 1006.3
21 19.06 ЮВ 1 4000 м дымка {морось} 10/10 180 м
[St]
+7.2 +6.0 92 +6 +6 1007.8 1006.4 +6.9 0.0
00 20.06 ЮВ 1 4000 м слабая морось 10/10 150 м
[St]
+7.4 +6.1 91 +6 +6 1007.4 1005.9
03 20.06 Ю 2 2000 м дымка {морось} 10/10 120 м
[St]
+7.7 +6.5 92 +6 +6 1006.4 1005.0
06 20.06 Ю 4 2000 м дымка {морось} 10/10 150 м
[St]
+7.4 +6.2 92 +4 +4 1005.5 1004.0
09 20.06 Ю 3 4000 м дымка 10/10 150 м
[St]
+6.8 +5.5 91 +4 +4 1005.4 1003.9 +7.8 0.0
12 20.06 ЮВ 2 н/о н/о +6.4 +4.9 90 +4 +4 1005.1 1003.7
15 20.06 Ю 3 н/о н/о +6.1 +5.0 93 +3 +3 1004.3 1002.8
18 20.06 Ю 3 н/о н/о +6.1 +4.9 92 +3 +3 1004.2 1002.8
21 20.06 Ю 3 4000 м дымка {ливн. осадки} 10/10 180 м
[St]
+6.0 +4.9 93 +3 +3 1004.2 1002.8 +5.9 1
00 21.06 ЮВ 3 4000 м слабая морось {ливн. осадки} 10/10 150 м
[St]
+6.5 +5.5 93 +3 +3 1004.6 1003.2
03 21.06 Ю 3 4000 м слабая морось {ливн. осадки} 10/10 180 м
[St]
+6.7 +5.4 91 +4 +4 1005.4 1004.0
06 21.06 Ю 3 2000 м слабая морось {ливн. осадки} 10/10 180 м
[St]
+6.5 +5.5 93 +3 +3 1006.0 1004.5
09 21.06 Ю 3 4000 м слабый ливневой дождь {морось} 10/10 240 м
[Cb cap]
+6.3 +5.2 93 +3 +3 1006.8 1005.4 +6.9 2
12 21.06 ЮВ 2 н/о н/о +6.3 +5.1 92 +4 +4 1007.9 1006.4
15 21.06 Ю 4 н/о н/о +6.2 +5.1 93 +2 +2 1008.4 1007.0
18 21.06 Ю 4 н/о н/о +6.2 +5.1 93 +2 +2 1009.4 1007.9
21 21.06 Ю 4 4000 м слабый ливневой дождь 10/10 180 м
[Cb cap]
+6.3 +5.2 93 +2 +2 1010.5 1009.1 +6.1 6
00 22.06 Ю 3 2000 м слабая морось {ливн. осадки} 10/10 90 м
[St]
+6.8 +5.9 94 +4 +4 1011.5 1010.0
03 22.06 Ю 3 2000 м дымка {морось} 10/10 120 м
[St]
+7.1 +6.2 94 +4 +4 1012.2 1010.7
06 22.06 Ю 2 4000 м дымка {морось} 10/10 150 м
[St]
+8.0 +6.4 90 +6 +6 1012.3 1010.9
09 22.06 ЮВ 1 1000 м дымка 10/10 90 м
[St]
+7.1 +6.0 93 +6 +6 1013.0 1011.5 +9.0 0.0
12 22.06 штиль 0 н/о н/о +6.4 +5.7 95 +5 +5 1013.4 1012.0
15 22.06 С 2 н/о н/о +5.8 +5.1 95 +3 +3 1013.9 1012.4
18 22.06 СВ 2 н/о н/о +5.1 +4.5 96 +2 +2 1014.5 1013.0
21 22.06 ЮЗ 2 10 км 3/3 200 м
[St Ci fib]
+8.7 +7.0 89 +7 +11 1014.9 1013.5 +5.0
00 23.06 ЮЗ 3 50 км 3/0
[Ci fib]
+10.9 +7.7 81 +9 +19 опасность
простуды
1014.7 1013.3
03 23.06 Ю 4 10 км 9/9 180 м
[St]
+11.6 +8.7 82 +9 +10 1013.9 1012.4
06 23.06 ЮЗ 4 50 км 1/0
[Ci fib]
+13.9 +8.4 69 +13 +16 1012.9 1011.5
09 23.06 Ю 2 50 км 3/0
[Ci fib]
+11.1 +8.2 82 +10 +10 1012.7 1011.3 +13.9
12 23.06 Ю 2 н/о н/о +9.5 +7.8 89 +8 +8 1012.6 1011.1
15 23.06 Ю 1 н/о н/о +7.7 +6.6 93 +7 +7 1012.5 1011.1
18 23.06 С 2 н/о н/о +7.3 +6.5 95 +5 +5 1011.7 1010.2
21 23.06 ЮЗ 3 4000 м дымка 9/9 150 м
[St]
+10.9 +8.3 84 +9 +9 1011.5 1010.1 +4.6
00 24.06 Ю 3 10 км дымка 8/8 90 м
[St]
+11.1 +8.4 83 +9 +11 1010.8 1009.4
03 24.06 ЮЗ 7 50 км 4/0
[Ci fib]
+14.2 +8.1 67 +12 +15 1009.3 1007.9
06 24.06 ЮЗ 5 50 км 5/0
[Ci fib]
+13.3 +8.6 73 +11 +14 1008.0 1006.6
09 24.06 Ю 3 50 км 9/0
[Ac trans Ci fib]
+10.8 +8.0 83 +9 +9 1007.3 1005.8 +14.4
12 24.06 Ю 3 н/о н/о +9.6 +8.1 90 +7 +7 1006.7 1005.3
15 24.06 ЮЗ 4 н/о н/о +9.4 +7.5 88 +6 +6 1006.0 1004.5
18 24.06 Ю 2 н/о н/о +8.6 +6.6 87 +7 +7 1005.3 1003.9
21 24.06 ЮВ 2 20 км 10/4 300 м
[St Ac trans Ci fib]
+10.6 +6.5 76 +9 +11 1004.6 1003.2 +8.5
00 25.06 ЮВ 2 50 км 10/6 300 м
[St Ac und]
+9.4 +6.8 84 +8 +9 1004.8 1003.4
03 25.06 Ю 2 10 км 9/5 200 м
[St Ac und]
+9.5 +6.8 83 +8 +11 1005.3 1003.9
06 25.06 З 2 50 км 10/6 1000 м
[Sc Ac und]
+8.5 +6.4 87 +7 +7 1005.6 1004.2
09 25.06 З 1 20 км слабый дождь 10/8 1000 м
[Sc Ac und]
+8.8 +7.1 89 +8 +8 1007.0 1005.6 +11.5 0.0
12 25.06 СВ 1 н/о н/о +8.2 +6.5 89 +7 +7 1008.6 1007.2
15 25.06 СВ 1 н/о н/о +7.0 +4.7 85 +6 +6 1009.3 1007.9
18 25.06 СВ 2 н/о н/о +6.8 +2.1 72 +5 +5 1010.2 1008.8
21 25.06 СВ 1 50 км ясно +13.6 -1.4 35 +14 +21 1010.4 1008.9 +4.8 1
00 26.06 ЮЗ 4 50 км 3/0
[Ci fib]
+13.6 +3.9 52 +12 +20 1010.1 1008.7
03 26.06 ЮЗ 6 50 км 8/0
[Ci fib]
+13.7 +6.6 62 +12 +16 1009.1 1007.7
06 26.06 ЮЗ 6 50 км 8/0
[Ci fib]
+14.4 +8.0 65 +13 +15 1008.0 1006.6

 

Местоположение метеостанции Эвенск (Магаданская область, Россия): широта 61.92 долгота 159.20 высота над уровнем моря 12 м.

В архиве по умолчанию представлена погода в Эвенске за последнюю неделю. Архивные данные за месяц целиком и за предыдущие месяцы, начиная с января 2011 года, Вы можете получить, выбрав интересующий диапазон дат из раскрывающегося списка и нажав кнопку "Ввод!".

Внимание! Время в таблицах - всемирное. Для получения местного времени необходимо прибавить поправку, которая в Эвенске равна 11 ч.

Смотрите также архив погоды в соседних городах и на ближайших метеорологических станциях:

Погода в Лабазной (Магаданская область, Россия) (158 км)
Погода в Омсукчане (Магаданская область, Россия) (188 км)
Погода в Шелихова (Магаданская область, Россия) (225 км)
Погода в Чемурнауте (Камчатский край, Россия) (242 км)
Погода в Кегали (Магаданская область, Россия) (275 км)
Погода в Палане (Камчатский край, Россия) (318 км)
Погода в Балыгычане (Магаданская область, Россия) (340 км)
Погода в Верхне-Пенжино (Камчатский край, Россия) (359 км)
Погода в Среднекане (Магаданская область, Россия) (363 км)
Погода в Оссоре (Камчатский край, Россия) (364 км)

Пояснения к столбцам:

Ветер - указаны скорость ветра в м/с - средняя за 10 мин, порывы в срок и между сроками (в фигурных скобках) и направление, откуда дует ветер: С - северный, СВ - северо-восточный, В - восточный, ЮВ - юго-восточный, Ю - южный, ЮЗ - юго-западный, З - западный, СЗ - северо-западный.
Видимость - горизонтальная дальность видимости в метрах или километрах. При видимости от 1 до 10 км при отсутствии осадков обычно наблюдается дымка, при ухудшении видимости до 1 км и менее - туман. В сухую погоду видимость может ухудшаться дымом, пылью или мглою.
Явления - указаны атмосферные явления, наблюдавшиеся в срок или в последний час перед сроком; фигурными скобками обозначены явления, наблюдавшиеся между сроками (за 1-3 часа до срока); квадратными скобками обозначены град или гололедные отложения с указанием их диаметра в мм.
Облачность - указаны через наклонную черту общая и нижняя облачность в баллах и высота нижней границы облаков в метрах; квадратными скобками обозначены формы облаков: Ci - перистые, Cs - перисто-слоистые, Cc - перисто-кучевые, Ac - высококучевые, As - высокослоистые, Sc - слоисто-кучевые, Ns - слоисто-дождевые, Cu - кучевые, Cb - кучево-дождевые. Подробнее классификацию облаков см. в Атласе облаков (PDF).
T - Температура воздуха - температура, измеренная на высоте 2 м над землей.
Td - Температура точки росы - температура, при понижении до которой содержащийся в воздухе водяной пар достигнет насыщения.
f - Относительная влажность воздуха - влажноcть воздуха, измеренная на высоте 2 м над землей.
Te - Эффективная температура - температура, которую ощущает одетый по сезону человек в тени. Характеристика душности погоды. При расчете учитывается влияние влажности воздуха и скорости ветра на теплоощущения человека.
Tes - Эффективная температура на солнце - температура, которую ощущает человек, с поправкой на солнечный нагрев. Характеристика знойности погоды. Зависит от высоты солнца над горизонтом, облачности и скорости ветра. Ночью, в пасмурную погоду, а также при ветре 12 м/с и более поправка равна нулю.
P - Атмосферное давление - приведенное к уровню моря атмосферное давление.
Po - Атмосферное давление - измеренное на уровне метеостанции атмосферное давление.
Tmin - Минимальная температура - минимум температуры воздуха на высоте 2 м над землей.
Tmax - Максимальная температура - максимум температуры воздуха на высоте 2 м над землей.
R - Количество осадков - Количество выпавших осадков за период времени, мм. При наведении курсора мыши на число - период времени, за который выпало указанное количество осадков.
R24 - Количество осадков - Количество выпавших осадков за 24 часа, мм.
S - Снежный покров - Высота снежного покрова, см. При наведении курсора мыши на число - состояние снежного покрова и степень покрытия местности в баллах.